YZ-1S DEB, 43644

Orbit data source: Space-Track

YZ-1S DEB, 43644 is space debris in SSO originally from a launch on Tue, 09 Oct 2018 UTC launched from the Jiuquan Satellite Launch Center, China (JSC). Debris objects in space refer to the collection of defunct objects orbiting the Earth. Examples of debris include non-operational satellites, rocket bodies, and fragments generated from explosions, collisions, or faulty payload assembly.

Loading next visibility...
Identifier
43644, 2018-077C
Orbit
SSO
Country
Flag of CNCN / PRC
Related business
Manufacturer
CALT
Mission
Spacecraft
Bus & Motor
Unknown
Mass
~200 kg wet, ~200 kg dry
Launch date (UTC)
2018-10-09 (8 years ago)
Launch vehicle
Unknown
Launch site
Jiuquan Satellite Launch Center, China (JSC)
Object type
Payload
Rocket body
Debris
Shape & HBR
Cyl + Cone, 1.5 m
Radar Cross Section
8.247 m², Large (>1 m²)

Expand to show TLE details & history
Last TLE update: 2 days ago

TLE from 2 days ago
0 YZ-1S DEB
1 43644U 18077C   26171.40430238  .00001740  00000-0  28167-3 0  9994
2 43644  97.9198 213.4804 0008082  60.6727 299.5287 14.72478468411115
Epoch: 2026-06-20T09:42Z
TLE epoch observation values (Epoch: 2026-06-20T09:42:11.725Z)
Latitude
-0.00006°
Longitude
159.31214°
Altitude
653.38 km
Speed
7.532 km/s
True Right ascension
14h 13m 55s
True Declination
0° 00' 00"
Sunlit
Object was in full shadow at epoch
Visualization orbit readout
Latitude
Unknown
Longitude
Unknown
Altitude
Unknown
Speed
Unknown
Apparent Right ascension
Unknown
Apparent Declination
Unknown
Sunlit
N/A
Visualization observer readout
Local Sidereal Time
02:13:23
Azimuth
Unknown
Elevation
Unknown
Doppler factor
Unknown
Orbital elements
Apogee altitude
655.899 km
Perigee altitude
644.538 km
Semi-major axis
7,028.356 km
Eccentricity
0.00081
Inclination
97.9198°
RAAN
213.4804°
Arg. of periapsis
60.6727°
True anomaly
299.44808°
Mean anomaly
299.5287°
Eccentric anomaly
299.48839°
Mean motion
3.68352 °/min
Orbital period
97.73 mins
BSTAR
0.00028167
Loading maneuver chart data...
Computing Atmospheric mass density...
Loading historical data...
Loading historical data...
Loading historical data...
Loading historical data...
Loading historical data...
Loading historical data...
Loading historical data...
Other satellites on launch #77 in the year 2018 (2018-10-09 UTC)

Documentation

Showing up to 5 results
|